timestamp,wind_dir_avg,wind_spd_avg,wind_spd_max_dir,wind_spd_gust,battery_voltage,lat,long
2022-10-17 00:04:00+00:00,84.0,5.82,69.0,10.9,12.49,47.59359,-54.27349
2022-10-17 00:14:00+00:00,102.0,5.66,115.0,9.25,12.49,47.59359,-54.27349
2022-10-17 00:24:00+00:00,75.0,5.75,77.0,9.26,12.49,47.59359,-54.27349
2022-10-17 00:34:00+00:00,83.0,3.92,95.0,6.21,12.49,47.59359,-54.27349
2022-10-17 00:44:00+00:00,98.0,3.23,129.0,5.63,12.49,47.59359,-54.27349
2022-10-17 00:54:00+00:00,82.0,3.28,62.0,4.32,12.49,47.59359,-54.27349
2022-10-17 01:04:00+00:00,92.0,2.96,119.0,4.16,12.49,47.59359,-54.27349
2022-10-17 01:14:01+00:00,90.0,4.05,112.0,5.81,12.49,47.59359,-54.27349
2022-10-17 01:24:01+00:00,86.0,3.32,89.0,4.83,12.49,47.59359,-54.27349
2022-10-17 01:34:01+00:00,82.0,3.37,71.0,4.68,12.49,47.59359,-54.27349
2022-10-17 01:44:01+00:00,82.0,4.57,79.0,6.25,12.49,47.59359,-54.27349
2022-10-17 01:54:01+00:00,81.0,4.35,90.0,5.68,12.49,47.59359,-54.27349
2022-10-17 02:04:01+00:00,79.0,5.0,86.0,6.3,12.49,47.59359,-54.27349
2022-10-17 02:14:00+00:00,78.0,5.91,83.0,9.0,12.41,47.59359,-54.27349
2022-10-17 02:24:00+00:00,80.0,5.73,107.0,8.5,12.41,47.59359,-54.27349
2022-10-17 02:34:00+00:00,84.0,4.78,67.0,7.87,12.41,47.59359,-54.27349
2022-10-17 02:44:00+00:00,83.0,5.31,80.0,7.47,12.41,47.59359,-54.27349
2022-10-17 02:54:00+00:00,77.0,3.67,89.0,6.04,12.41,47.59359,-54.27349
2022-10-17 03:04:00+00:00,81.0,3.84,76.0,5.83,12.41,47.59359,-54.27349
2022-10-17 03:14:00+00:00,87.0,4.31,86.0,6.78,12.41,47.59359,-54.27349
2022-10-17 03:24:00+00:00,76.0,4.63,78.0,6.18,12.41,47.59359,-54.27349
2022-10-17 03:34:00+00:00,100.0,4.22,81.0,6.47,12.41,47.59359,-54.27349
2022-10-17 03:44:00+00:00,89.0,3.53,77.0,4.63,12.41,47.59359,-54.27349
2022-10-17 03:54:00+00:00,67.0,3.65,64.0,5.11,12.41,47.59359,-54.27349
2022-10-17 04:04:00+00:00,89.0,4.13,84.0,5.94,12.41,47.59359,-54.27349
2022-10-17 04:14:00+00:00,74.0,1.88,74.0,5.51,12.41,47.59359,-54.27349
2022-10-17 04:24:00+00:00,66.0,2.47,72.0,4.71,12.41,47.59359,-54.27349
2022-10-17 04:34:00+00:00,78.0,3.62,66.0,5.07,12.41,47.59359,-54.27349
2022-10-17 04:44:00+00:00,70.0,3.77,69.0,4.66,12.41,47.59359,-54.27349
2022-10-17 04:54:00+00:00,72.0,3.3,73.0,4.23,12.41,47.59359,-54.27349
2022-10-17 05:04:00+00:00,72.0,3.15,81.0,3.95,12.41,47.59359,-54.27349
2022-10-17 05:14:01+00:00,80.0,2.9,78.0,4.02,12.41,47.59359,-54.27349
2022-10-17 05:24:01+00:00,140.0,3.37,137.0,4.62,12.41,47.59359,-54.27349
2022-10-17 05:34:01+00:00,81.0,2.73,78.0,5.52,12.41,47.59359,-54.27349
2022-10-17 05:44:01+00:00,96.0,1.52,105.0,3.97,12.41,47.59359,-54.27349
2022-10-17 05:54:01+00:00,233.0,0.96,96.0,3.62,12.41,47.59359,-54.27349
2022-10-17 06:04:01+00:00,256.0,2.35,251.0,3.28,12.41,47.59359,-54.27349
2022-10-17 06:14:01+00:00,256.0,1.54,101.0,3.75,12.33,47.59359,-54.27349
2022-10-17 06:24:01+00:00,106.0,3.7,124.0,5.13,12.33,47.59359,-54.27349
2022-10-17 06:34:01+00:00,110.0,3.81,126.0,6.19,12.33,47.59359,-54.27349
2022-10-17 06:44:01+00:00,92.0,3.53,97.0,6.36,12.33,47.59359,-54.27349
2022-10-17 06:54:01+00:00,82.0,3.81,87.0,5.36,12.33,47.59359,-54.27349
2022-10-17 07:04:01+00:00,99.0,2.36,100.0,3.68,12.33,47.59359,-54.27349
2022-10-17 07:14:00+00:00,92.0,2.42,89.0,3.63,12.41,47.59359,-54.27349
2022-10-17 07:24:00+00:00,73.0,3.18,62.0,4.09,12.41,47.59359,-54.27349
2022-10-17 07:34:00+00:00,80.0,2.49,94.0,3.53,12.41,47.59359,-54.27349
2022-10-17 07:44:00+00:00,96.0,2.73,98.0,4.16,12.41,47.59359,-54.27349
2022-10-17 07:54:00+00:00,93.0,2.31,118.0,4.48,12.41,47.59359,-54.27349
2022-10-17 08:04:00+00:00,100.0,3.03,92.0,4.64,12.41,47.59359,-54.27349
2022-10-17 08:14:00+00:00,93.0,2.71,84.0,4.58,12.33,47.59359,-54.27349
2022-10-17 08:24:00+00:00,110.0,2.57,124.0,5.53,12.33,47.59359,-54.27349
2022-10-17 08:34:00+00:00,115.0,4.24,129.0,6.5,12.33,47.59359,-54.27349
2022-10-17 08:44:00+00:00,108.0,3.7,116.0,6.84,12.33,47.59359,-54.27349
2022-10-17 08:54:00+00:00,119.0,6.53,118.0,9.4,12.33,47.59359,-54.27349
2022-10-17 09:04:00+00:00,123.0,7.09,122.0,8.76,12.33,47.59359,-54.27349
2022-10-17 09:14:01+00:00,121.0,7.91,128.0,10.04,12.25,47.59359,-54.27349
2022-10-17 09:24:01+00:00,125.0,6.38,125.0,8.22,12.25,47.59359,-54.27349
2022-10-17 09:34:01+00:00,130.0,3.83,130.0,5.09,12.25,47.59359,-54.27349
2022-10-17 09:44:01+00:00,136.0,3.93,124.0,5.38,12.25,47.59359,-54.27349
2022-10-17 09:54:01+00:00,147.0,3.41,130.0,4.32,12.25,47.59359,-54.27349
2022-10-17 10:04:01+00:00,129.0,0.55,173.0,1.22,12.25,47.59359,-54.27349
2022-10-17 10:14:01+00:00,319.0,1.53,322.0,2.03,12.25,47.59359,-54.27349
2022-10-17 10:24:01+00:00,22.0,1.7,9.0,2.58,12.25,47.59359,-54.27349
2022-10-17 10:34:01+00:00,318.0,0.6,333.0,1.08,12.25,47.59359,-54.27349
2022-10-17 10:44:01+00:00,11.0,0.83,5.0,1.22,12.25,47.59359,-54.27349
2022-10-17 10:54:01+00:00,39.0,1.66,42.0,2.44,12.25,47.59359,-54.27349
2022-10-17 11:04:01+00:00,25.0,2.93,26.0,3.14,12.25,47.59359,-54.27349
2022-10-17 11:14:01+00:00,42.0,3.56,35.0,4.43,12.25,47.59359,-54.27349
2022-10-17 11:24:01+00:00,45.0,3.96,53.0,4.47,12.25,47.59359,-54.27349
2022-10-17 11:34:01+00:00,43.0,3.04,46.0,3.8,12.25,47.59359,-54.27349
2022-10-17 11:44:01+00:00,90.0,1.6,117.0,2.13,12.25,47.59359,-54.27349
2022-10-17 11:54:01+00:00,56.0,0.14,88.0,0.62,12.25,47.59359,-54.27349
2022-10-17 12:04:01+00:00,0.0,1.72,1.0,1.99,12.25,47.59359,-54.27349
2022-10-17 12:14:01+00:00,346.0,0.33,353.0,0.95,12.25,47.59359,-54.27349
2022-10-17 12:24:01+00:00,203.0,0.94,191.0,2.11,12.25,47.59359,-54.27349
2022-10-17 12:34:01+00:00,169.0,1.62,152.0,3.37,12.25,47.59359,-54.27349
2022-10-17 12:44:01+00:00,270.0,1.92,276.0,2.3,12.25,47.59359,-54.27349
2022-10-17 12:54:01+00:00,345.0,2.3,351.0,3.01,12.25,47.59359,-54.27349
2022-10-17 13:04:01+00:00,28.0,1.65,22.0,2.26,12.25,47.59359,-54.27349
2022-10-17 13:14:01+00:00,357.0,1.35,358.0,2.04,12.25,47.59359,-54.27349
2022-10-17 13:24:01+00:00,21.0,1.15,18.0,1.71,12.25,47.59359,-54.27349
2022-10-17 13:34:01+00:00,7.0,2.8,8.0,3.34,12.25,47.59359,-54.27349
2022-10-17 13:44:01+00:00,352.0,2.36,314.0,3.22,12.25,47.59359,-54.27349
2022-10-17 13:54:01+00:00,327.0,1.79,308.0,3.26,12.25,47.59359,-54.27349
2022-10-17 14:04:01+00:00,137.0,3.21,111.0,5.91,12.25,47.59359,-54.27349
2022-10-17 14:14:00+00:00,158.0,2.49,148.0,5.35,12.33,47.59359,-54.27349
2022-10-17 14:24:00+00:00,161.0,5.11,165.0,7.08,12.33,47.59359,-54.27349
2022-10-17 14:34:00+00:00,211.0,4.83,207.0,6.07,12.33,47.59359,-54.27349
2022-10-17 14:44:00+00:00,256.0,2.31,249.0,3.15,12.33,47.59359,-54.27349
2022-10-17 14:54:00+00:00,270.0,2.59,278.0,3.95,12.33,47.59359,-54.27349
2022-10-17 15:04:00+00:00,30.0,3.74,40.0,4.29,12.33,47.59359,-54.27349
2022-10-17 15:14:01+00:00,349.0,3.72,343.0,4.38,12.25,47.59359,-54.27349
2022-10-17 15:24:01+00:00,354.0,4.92,354.0,5.14,12.25,47.59359,-54.27349
2022-10-17 15:34:01+00:00,356.0,5.79,357.0,6.28,12.25,47.59359,-54.27349
2022-10-17 15:44:01+00:00,5.0,4.73,5.0,5.48,12.25,47.59359,-54.27349
2022-10-17 15:54:01+00:00,357.0,4.11,343.0,4.91,12.25,47.59359,-54.27349
2022-10-17 16:04:01+00:00,331.0,3.71,322.0,4.12,12.25,47.59359,-54.27349
2022-10-17 16:14:00+00:00,342.0,3.13,345.0,3.44,12.97,47.59359,-54.27349
2022-10-17 16:24:00+00:00,313.0,2.6,307.0,3.35,12.97,47.59359,-54.27349
2022-10-17 16:34:00+00:00,333.0,2.43,326.0,2.95,12.97,47.59359,-54.27349
2022-10-17 16:44:00+00:00,40.0,4.75,41.0,5.43,12.97,47.59359,-54.27349
2022-10-17 16:54:00+00:00,332.0,3.17,323.0,3.51,12.97,47.59359,-54.27349
2022-10-17 17:04:00+00:00,332.0,2.34,330.0,2.76,12.97,47.59359,-54.27349
2022-10-17 17:14:00+00:00,299.0,2.24,300.0,2.78,13.68,47.59359,-54.27349
2022-10-17 17:24:00+00:00,293.0,2.24,293.0,2.75,13.68,47.59359,-54.27349
2022-10-17 17:34:00+00:00,44.0,0.97,44.0,1.37,13.68,47.59359,-54.27349
2022-10-17 17:44:00+00:00,65.0,1.08,65.0,1.32,13.68,47.59359,-54.27349
2022-10-17 17:54:00+00:00,147.0,1.0,147.0,1.28,13.68,47.59359,-54.27349
2022-10-17 18:04:00+00:00,206.0,1.9,205.0,2.25,13.68,47.59359,-54.27349
2022-10-17 18:14:00+00:00,198.0,2.09,197.0,2.29,13.29,47.59359,-54.27349
2022-10-17 18:24:00+00:00,171.0,1.94,177.0,2.12,13.29,47.59359,-54.27349
2022-10-17 18:34:00+00:00,190.0,3.4,190.0,3.64,13.29,47.59359,-54.27349
2022-10-17 18:44:00+00:00,194.0,3.91,194.0,4.05,13.29,47.59359,-54.27349
2022-10-17 18:54:00+00:00,192.0,4.11,195.0,4.44,13.29,47.59359,-54.27349
2022-10-17 19:04:00+00:00,193.0,4.8,197.0,6.23,13.29,47.59359,-54.27349
2022-10-17 19:14:00+00:00,205.0,7.05,209.0,7.59,13.53,47.59359,-54.27349
2022-10-17 19:24:00+00:00,205.0,7.33,203.0,8.22,13.53,47.59359,-54.27349
2022-10-17 19:34:00+00:00,203.0,7.54,205.0,8.48,13.53,47.59359,-54.27349
2022-10-17 19:44:00+00:00,203.0,7.01,206.0,7.88,13.53,47.59359,-54.27349
2022-10-17 19:54:00+00:00,206.0,7.59,205.0,8.42,13.53,47.59359,-54.27349
2022-10-17 20:04:00+00:00,208.0,7.03,213.0,7.7,13.53,47.59359,-54.27349
2022-10-17 20:14:00+00:00,212.0,7.08,214.0,7.66,13.13,47.59359,-54.27349
2022-10-17 20:24:00+00:00,217.0,6.97,217.0,7.41,13.13,47.59359,-54.27349
2022-10-17 20:34:00+00:00,212.0,5.52,211.0,6.23,13.13,47.59359,-54.27349
2022-10-17 20:44:00+00:00,207.0,6.29,205.0,6.85,13.13,47.59359,-54.27349
2022-10-17 20:54:00+00:00,203.0,6.76,204.0,7.33,13.13,47.59359,-54.27349
2022-10-17 21:04:00+00:00,202.0,6.36,204.0,7.05,13.13,47.59359,-54.27349
2022-10-17 21:14:00+00:00,204.0,6.45,203.0,7.08,12.65,47.59359,-54.27349
2022-10-17 21:24:00+00:00,202.0,6.51,204.0,6.96,12.65,47.59359,-54.27349
2022-10-17 21:34:00+00:00,208.0,7.18,209.0,8.14,12.65,47.59359,-54.27349
2022-10-17 21:44:00+00:00,208.0,6.7,202.0,7.28,12.65,47.59359,-54.27349
2022-10-17 21:54:00+00:00,214.0,5.46,209.0,6.58,12.65,47.59359,-54.27349
2022-10-17 22:04:00+00:00,217.0,6.66,216.0,7.4,12.65,47.59359,-54.27349
2022-10-17 22:14:01+00:00,221.0,6.28,221.0,7.27,12.57,47.59359,-54.27349
2022-10-17 22:24:01+00:00,220.0,6.47,218.0,7.37,12.57,47.59359,-54.27349
2022-10-17 22:34:01+00:00,228.0,5.66,231.0,6.97,12.57,47.59359,-54.27349
2022-10-17 22:44:01+00:00,231.0,5.37,233.0,6.14,12.57,47.59359,-54.27349
2022-10-17 22:54:01+00:00,215.0,3.86,219.0,4.86,12.57,47.59359,-54.27349
2022-10-17 23:04:01+00:00,214.0,4.46,215.0,5.07,12.57,47.59359,-54.27349
2022-10-17 23:14:01+00:00,217.0,4.9,223.0,5.58,12.49,47.59359,-54.27349
2022-10-17 23:24:01+00:00,219.0,6.09,219.0,6.6,12.49,47.59359,-54.27349
2022-10-17 23:34:01+00:00,206.0,4.59,202.0,5.36,12.49,47.59359,-54.27349
2022-10-17 23:44:01+00:00,212.0,7.14,212.0,7.97,12.49,47.59359,-54.27349
2022-10-17 23:54:01+00:00,222.0,5.96,219.0,6.78,12.49,47.59359,-54.27349
